TimeCST,TemperatureF,Dew PointF,Humidity,Sea Level PressureIn,VisibilityMPH,Wind Direction,Wind SpeedMPH,Gust SpeedMPH,PrecipitationIn,Events,Conditions,WindDirDegrees,DateUTC
12:53 AM,33.1,21.9,64,30.31,10.0,North,11.5,-,N/A,,Clear,360,2013-01-24 06:53:00
1:53 AM,32.0,18.0,56,30.34,10.0,North,16.1,-,N/A,,Clear,10,2013-01-24 07:53:00
2:53 AM,30.0,12.9,49,30.37,10.0,North,20.7,26.5,N/A,,Clear,10,2013-01-24 08:53:00
3:53 AM,28.0,16.0,61,30.40,10.0,NNE,15.0,-,N/A,,Clear,20,2013-01-24 09:53:00
4:53 AM,25.0,12.0,58,30.43,10.0,North,18.4,-,N/A,,Clear,10,2013-01-24 10:53:00
5:53 AM,24.1,12.9,62,30.47,10.0,North,17.3,25.3,N/A,,Clear,10,2013-01-24 11:53:00
6:53 AM,21.9,10.9,63,30.50,10.0,NNE,13.8,-,N/A,,Clear,20,2013-01-24 12:53:00
7:53 AM,21.9,12.0,66,30.51,10.0,NNE,11.5,-,N/A,,Clear,30,2013-01-24 13:53:00
8:53 AM,23.0,10.9,60,30.54,10.0,NE,17.3,-,N/A,,Clear,40,2013-01-24 14:53:00
9:53 AM,25.0,9.0,51,30.57,10.0,NNE,17.3,-,N/A,,Clear,30,2013-01-24 15:53:00
10:53 AM,27.0,9.0,47,30.58,10.0,NE,13.8,-,N/A,,Clear,40,2013-01-24 16:53:00
11:53 AM,28.9,5.0,36,30.53,10.0,ENE,13.8,19.6,N/A,,Clear,70,2013-01-24 17:53:00
12:53 PM,30.0,5.0,35,30.51,10.0,East,10.4,-,N/A,,Clear,80,2013-01-24 18:53:00
1:53 PM,32.0,6.1,34,30.45,10.0,ENE,11.5,-,N/A,,Clear,70,2013-01-24 19:53:00
2:53 PM,33.1,8.1,35,30.44,10.0,ENE,8.1,17.3,N/A,,Clear,60,2013-01-24 20:53:00
3:53 PM,32.0,10.0,40,30.43,10.0,East,11.5,-,N/A,,Clear,90,2013-01-24 21:53:00
4:53 PM,30.9,12.0,46,30.42,10.0,East,10.4,-,N/A,,Overcast,90,2013-01-24 22:53:00
5:53 PM,30.9,10.9,43,30.41,10.0,ENE,12.7,-,N/A,,Overcast,70,2013-01-24 23:53:00
6:53 PM,30.9,10.9,43,30.38,10.0,East,10.4,-,N/A,,Overcast,80,2013-01-25 00:53:00
7:53 PM,30.9,12.0,46,30.37,10.0,East,6.9,-,N/A,,Overcast,100,2013-01-25 01:53:00
8:53 PM,30.9,10.9,43,30.35,10.0,East,6.9,-,N/A,,Overcast,100,2013-01-25 02:53:00
9:53 PM,30.9,10.9,43,30.34,10.0,ESE,10.4,-,N/A,,Overcast,120,2013-01-25 03:53:00
10:53 PM,30.9,12.0,46,30.30,10.0,ESE,11.5,-,N/A,,Overcast,110,2013-01-25 04:53:00
11:53 PM,30.9,10.9,43,30.29,10.0,ESE,6.9,-,N/A,,Overcast,120,2013-01-25 05:53:00